| time (UTC) | temp C | wind direction | speed KPH | gust KPH | rain 1hr cm | rain 24hr cm | rain mn cm | humidity % | barometer mb |
| 20260508044524 | 6 | 5 | 0.0 | 8.0 | 0.00 | 0.05 | 0.05 | 53 | 1011.9 |
| 20260508043042 | 6 | 318 | 0.0 | 4.8 | 0.00 | 0.05 | 0.05 | 52 | 1012.1 |
| 20260508041526 | 6 | 325 | 0.0 | 3.2 | 0.00 | 0.05 | 0.05 | 50 | 1012.3 |
| 20260508040055 | 7 | 325 | 1.6 | 9.7 | 0.00 | 0.05 | 0.05 | 49 | 1012.6 |
| 20260508034606 | 7 | 319 | 1.6 | 6.4 | 0.00 | 0.05 | 0.05 | 49 | 1012.8 |
| 20260508033120 | 7 | 319 | 0.0 | 9.7 | 0.00 | 0.05 | 0.05 | 49 | 1012.6 |
| 20260508031511 | 7 | 319 | 3.2 | 4.8 | 0.00 | 0.05 | 0.05 | 47 | 1012.5 |
| 20260508030134 | 7 | 319 | 3.2 | 8.0 | 0.00 | 0.05 | 0.05 | 45 | 1012.2 |
| 20260508024502 | 7 | 62 | 1.6 | 6.4 | 0.00 | 0.05 | 0.05 | 44 | 1012.1 |
| 20260508023046 | 7 | 298 | 1.6 | 4.8 | 0.00 | 0.05 | 0.05 | 42 | 1012.2 |
| 20260508021536 | 7 | 270 | 3.2 | 4.8 | 0.00 | 0.05 | 0.05 | 44 | 1012.2 |
| 20260508020015 | 8 | 270 | 0.0 | 1.6 | 0.00 | 0.05 | 0.05 | 40 | 1012.2 |
| 20260508014629 | 8 | 270 | 0.0 | 4.8 | 0.00 | 0.05 | 0.05 | 42 | 1012.3 |
| 20260508013126 | 8 | 270 | 0.0 | 16.1 | 0.00 | 0.05 | 0.05 | 40 | 1012.2 |
| 20260508011629 | 9 | 236 | 1.6 | 19.3 | 0.00 | 0.05 | 0.05 | 38 | 1012.3 |
| 20260508010044 | 10 | 313 | 8.0 | 16.1 | 0.00 | 0.05 | 0.05 | 34 | 1012.4 |
| 20260508004526 | 11 | 289 | 8.0 | 19.3 | 0.00 | 0.10 | 0.05 | 32 | 1012.3 |
| 20260508003024 | 11 | 281 | 4.8 | 16.1 | 0.00 | 0.10 | 0.05 | 34 | 1012.2 |
| 20260508001537 | 12 | 298 | 4.8 | 14.5 | 0.00 | 0.10 | 0.05 | 32 | 1012.4 |
| 20260508000129 | 10 | 259 | 6.4 | 20.9 | 0.00 | 0.10 | 0.05 | 36 | 1012.5 |
| 20260507234624 | 10 | 309 | 6.4 | 16.1 | 0.00 | 0.20 | 0.05 | 37 | 1012.5 |
| 20260507233122 | 10 | 315 | 6.4 | 16.1 | 0.00 | 0.20 | 0.05 | 37 | 1012.7 |
| 20260507231512 | 10 | 313 | 4.8 | 17.7 | 0.00 | 0.20 | 0.05 | 38 | 1012.7 |
| 20260507230042 | 10 | 277 | 3.2 | 14.5 | 0.00 | 0.20 | 0.05 | 41 | 1012.7 |
| 20260507224528 | 10 | 306 | 9.7 | 19.3 | 0.00 | 0.28 | 0.05 | 37 | 1012.8 |
| 20260507223046 | 10 | 317 | 11.3 | 20.9 | 0.00 | 0.28 | 0.05 | 34 | 1012.9 |
| 20260507221548 | 12 | 318 | 8.0 | 17.7 | 0.00 | 0.28 | 0.05 | 35 | 1013.2 |
| 20260507220054 | 12 | 295 | 9.7 | 20.9 | 0.00 | 0.28 | 0.05 | 37 | 1013.5 |
| 20260507214600 | 12 | 333 | 4.8 | 27.4 | 0.00 | 0.41 | 0.05 | 43 | 1013.9 |
| 20260507213047 | 12 | 279 | 8.0 | 20.9 | 0.00 | 0.41 | 0.05 | 38 | 1014.2 |
| 20260507211555 | 11 | 311 | 6.4 | 20.9 | 0.00 | 0.41 | 0.05 | 36 | 1014.5 |
| 20260507210106 | 12 | 323 | 6.4 | 19.3 | 0.00 | 0.41 | 0.05 | 37 | 1014.8 |
| 20260507204603 | 11 | 304 | 6.4 | 17.7 | 0.00 | 0.58 | 0.05 | 41 | 1014.9 |
| 20260507203108 | 11 | 307 | 6.4 | 24.1 | 0.00 | 0.58 | 0.05 | 38 | 1015.1 |
| 20260507201614 | 11 | 308 | 6.4 | 14.5 | 0.00 | 0.58 | 0.05 | 37 | 1015.5 |
| 20260507200122 | 10 | 294 | 4.8 | 25.7 | 0.00 | 0.58 | 0.05 | 43 | 1016.1 |
| 20260507194516 | 9 | 350 | 0.0 | 12.9 | 0.00 | 0.71 | 0.05 | 43 | 1016.4 |
| 20260507193041 | 8 | 30 | 0.0 | 9.7 | 0.00 | 0.71 | 0.05 | 45 | 1016.7 |
| 20260507191627 | 8 | 312 | 3.2 | 12.9 | 0.00 | 0.71 | 0.05 | 47 | 1017.2 |
| 20260507190121 | 8 | 348 | 1.6 | 12.9 | 0.00 | 0.71 | 0.05 | 46 | 1017.6 |
| 20260507184629 | 7 | 263 | 4.8 | 16.1 | 0.00 | 0.71 | 0.05 | 48 | 1017.8 |
| 20260507183046 | 7 | 302 | 3.2 | 8.0 | 0.00 | 0.71 | 0.05 | 49 | 1018.2 |
| 20260507181529 | 7 | 277 | 4.8 | 12.9 | 0.00 | 0.71 | 0.05 | 49 | 1018.4 |
| 20260507180100 | 7 | 285 | 3.2 | 9.7 | 0.00 | 0.71 | 0.05 | 52 | 1018.5 |
| 20260507174608 | 7 | 304 | 1.6 | 6.4 | 0.00 | 0.71 | 0.05 | 53 | 1018.5 |
| 20260507173105 | 7 | 319 | 4.8 | 14.5 | 0.00 | 0.71 | 0.05 | 47 | 1019.0 |
| 20260507171613 | 7 | 312 | 3.2 | 8.0 | 0.00 | 0.71 | 0.05 | 56 | 1019.3 |
| 20260507170110 | 7 | 318 | 3.2 | 14.5 | 0.03 | 0.71 | 0.05 | 50 | 1019.7 |
| 20260507164619 | 6 | 312 | 1.6 | 14.5 | 0.03 | 0.71 | 0.05 | 53 | 1020.1 |
| 20260507163013 | 5 | 247 | 1.6 | 12.9 | 0.05 | 0.71 | 0.05 | 51 | 1020.5 |
| 20260507161535 | 6 | 273 | 1.6 | 8.0 | 0.05 | 0.71 | 0.05 | 48 | 1020.6 |
| 20260507160043 | 5 | 321 | 3.2 | 12.9 | 0.03 | 0.71 | 0.03 | 48 | 1021.0 |
| 20260507154545 | 5 | 22 | 4.8 | 9.7 | 0.03 | 0.71 | 0.03 | 47 | 1021.1 |
| 20260507153101 | 4 | 28 | 1.6 | 14.5 | 0.00 | 0.69 | 0.00 | 47 | 1021.2 |
| 20260507151553 | 3 | 284 | 1.6 | 6.4 | 0.00 | 0.69 | 0.00 | 47 | 1021.4 |
| 20260507150104 | 3 | 297 | 1.6 | 8.0 | 0.00 | 0.69 | 0.00 | 51 | 1021.5 |
| 20260507144611 | 2 | 323 | 3.2 | 8.0 | 0.00 | 0.69 | 0.00 | 51 | 1021.5 |
| 20260507143059 | 2 | 32 | 3.2 | 9.7 | 0.00 | 0.69 | 0.00 | 49 | 1021.6 |
| 20260507141611 | 1 | 333 | 1.6 | 6.4 | 0.00 | 0.69 | 0.00 | 53 | 1021.8 |
| 20260507140123 | 1 | 323 | 1.6 | 8.0 | 0.00 | 0.69 | 0.00 | 52 | 1022.1 |
| 20260507134607 | 0 | 105 | 1.6 | 4.8 | 0.00 | 0.69 | 0.00 | 58 | 1022.0 |
| 20260507133122 | 0 | 49 | 0.0 | 4.8 | 0.00 | 0.69 | 0.00 | 64 | 1022.0 |
| 20260507131624 | 0 | 17 | 1.6 | 6.4 | 0.00 | 0.69 | 0.00 | 60 | 1022.1 |
| 20260507130132 | -1 | 62 | 3.2 | 9.7 | 0.00 | 0.69 | 0.00 | 62 | 1022.1 |
| 20260507124636 | -3 | 87 | 4.8 | 11.3 | 0.00 | 0.69 | 0.00 | 68 | 1021.9 |
| 20260507123117 | -3 | 80 | 1.6 | 8.0 | 0.00 | 0.69 | 0.00 | 67 | 1021.9 |
| 20260507121509 | -3 | 84 | 1.6 | 6.4 | 0.00 | 0.69 | 0.00 | 68 | 1022.0 |
| 20260507120131 | -3 | 88 | 1.6 | 4.8 | 0.00 | 0.69 | 0.00 | 66 | 1021.9 |
| 20260507114510 | -3 | 92 | 4.8 | 11.3 | 0.00 | 0.69 | 0.00 | 65 | 1021.8 |
| 20260507113016 | -3 | 44 | 3.2 | 11.3 | 0.00 | 0.69 | 0.00 | 65 | 1021.9 |
| 20260507111617 | -3 | 94 | 3.2 | 12.9 | 0.00 | 0.69 | 0.00 | 67 | 1022.0 |
| 20260507110120 | -3 | 82 | 3.2 | 6.4 | 0.00 | 0.69 | 0.00 | 66 | 1022.1 |
| 20260507104524 | -3 | 117 | 6.4 | 12.9 | 0.00 | 0.69 | 0.00 | 63 | 1021.9 |
| 20260507103013 | -3 | 57 | 3.2 | 6.4 | 0.00 | 0.69 | 0.00 | 64 | 1021.9 |
| 20260507101513 | -3 | 95 | 3.2 | 11.3 | 0.00 | 0.69 | 0.00 | 63 | 1021.9 |
| 20260507100039 | -3 | 78 | 3.2 | 8.0 | 0.00 | 0.69 | 0.00 | 63 | 1021.9 |
| 20260507094633 | -3 | 96 | 3.2 | 9.7 | 0.00 | 0.69 | 0.00 | 66 | 1021.7 |
| 20260507093025 | -3 | 71 | 3.2 | 11.3 | 0.00 | 0.69 | 0.00 | 65 | 1021.9 |
| 20260507091508 | -4 | 100 | 6.4 | 12.9 | 0.00 | 0.69 | 0.00 | 69 | 1021.7 |
| 20260507090116 | -4 | 57 | 3.2 | 6.4 | 0.00 | 0.69 | 0.00 | 71 | 1022.1 |
| 20260507084614 | -4 | 65 | 0.0 | 4.8 | 0.00 | 0.69 | 0.00 | 71 | 1022.1 |
| 20260507083112 | -5 | 73 | 1.6 | 3.2 | 0.00 | 0.69 | 0.00 | 73 | 1022.0 |
| 20260507081612 | -4 | 67 | 0.0 | 0.0 | 0.00 | 0.69 | 0.00 | 72 | 1021.9 |
| 20260507080132 | -4 | 67 | 0.0 | 0.0 | 0.00 | 0.69 | 0.00 | 72 | 1022.0 |
| 20260507074518 | -4 | 67 | 0.0 | 6.4 | 0.00 | 0.69 | 0.00 | 74 | 1021.8 |
| 20260507073130 | -4 | 60 | 3.2 | 4.8 | 0.00 | 0.69 | 0.00 | 74 | 1021.8 |
| 20260507071627 | -3 | 43 | 0.0 | 0.0 | 0.00 | 0.69 | 0.00 | 73 | 1022.0 |
| 20260507070122 | -3 | 43 | 0.0 | 0.0 | 0.00 | 0.69 | 0.00 | 73 | 1021.7 |
| 20260507064619 | -3 | 42 | 1.6 | 6.4 | 0.00 | 0.69 | 0.00 | 70 | 1021.5 |
| 20260507063118 | -3 | 28 | 0.0 | 0.0 | 0.00 | 0.69 | 0.00 | 70 | 1021.5 |
| 20260507061618 | -3 | 28 | 0.0 | 0.0 | 0.00 | 0.69 | 0.00 | 77 | 1021.2 |
| 20260507060105 | -3 | 28 | 0.0 | 0.0 | 0.00 | 0.69 | 0.00 | 78 | 1020.9 |
| 20260507054511 | -3 | 74 | 0.0 | 0.0 | 0.00 | 0.69 | 0.69 | 79 | 1020.7 |
| 20260507053025 | -3 | 55 | 0.0 | 0.0 | 0.00 | 0.69 | 0.69 | 81 | 1020.5 |
| 20260507051549 | -3 | 55 | 0.0 | 0.0 | 0.00 | 0.69 | 0.69 | 82 | 1020.0 |
| 20260507050052 | -3 | 56 | 0.0 | 0.0 | 0.00 | 0.69 | 0.69 | 83 | 1019.8 |